{"data":{"norad_id":62226,"intl_designator":"2024-231J","name":"STARLINK-11475 [DTC]","alt_names":[],"object_type":"PAYLOAD","status":"ACTIVE","operator":null,"country":"US","launch_date":"2024-12-05","launch_site_code":"AFWTR","launch_vehicle":null,"mission":null,"orbit_class":"UNKNOWN","rcs_meters":null,"size_class":null,"mass_kg":null,"dimensions":null,"purposes":["comms"],"wikipedia_slug":null,"has_3d_model":false,"image_url":null,"decayed_at":null,"tle_current":{"epoch":"2026-05-25T02:13:38.794368Z","epoch_age_seconds":57290,"freshness":"FRESH","line1":"1 62226U 24231J   26145.09281012  .00105051  00000+0  86093-3 0  9991","line2":"2 62226  53.1568  84.4647 0001147  98.8929 261.2219 15.69712260 85419","mean_motion":15.6971226,"eccentricity":0.0001147,"inclination_deg":53.1568,"raan_deg":84.4647,"arg_perigee_deg":98.8929,"mean_anomaly_deg":261.2219,"bstar":0.00086093,"rev_number":8541,"period_min":91.736558138369,"perigee_km":358.94745094224,"apogee_km":360.493115403,"semimajor_km":6737.8572831726,"source":"CELESTRAK","updated_at":"2026-05-25T13:38:19.614695Z"}}}